KAC9121 OKKK-OBBI

Flight info

Callsign KAC9121
Flight time 0h 46m
Altitude 27000
Route BOXIK B416 IMDOX P975 LONOS L703 KOBOK
Aircraft A320/M-SDE3FGHIRWY/LB1

Departure

Time 2026-05-06 11:44
Airport Kuwait International Airport (OKKK)

Arrival

Time 2026-05-06 12:30
Airport Bahrain International Airport (OBBI)
Time Latitude Longitude Altitude Speed Heading
2026-05-06 11:19 29.24992 47.96090 168 ft 0 kts 48°
2026-05-06 11:31 29.24985 47.96080 168 ft 3 kts 49°
2026-05-06 11:32 29.24971 47.96063 167 ft 3 kts 50°
2026-05-06 11:32 29.24958 47.96045 167 ft 3 kts 51°
2026-05-06 11:32 29.24946 47.96027 167 ft 3 kts 52°
2026-05-06 11:32 29.24933 47.96008 166 ft 3 kts 54°
2026-05-06 11:33 29.24922 47.95989 166 ft 3 kts 59°
2026-05-06 11:33 29.24913 47.95969 165 ft 3 kts 73°
2026-05-06 11:33 29.24910 47.95949 165 ft 3 kts 117°
2026-05-06 11:33 29.24914 47.95942 165 ft 0 kts 154°
2026-05-06 11:36 29.24909 47.95945 165 ft 2 kts 155°
2026-05-06 11:36 29.24868 47.95967 165 ft 12 kts 155°
2026-05-06 11:36 29.24762 47.96023 165 ft 22 kts 154°
2026-05-06 11:37 29.24623 47.96098 165 ft 21 kts 155°
2026-05-06 11:37 29.24492 47.96167 165 ft 20 kts 155°
2026-05-06 11:37 29.24370 47.96231 165 ft 19 kts 153°
2026-05-06 11:37 29.24256 47.96292 165 ft 18 kts 156°
2026-05-06 11:38 29.24151 47.96347 166 ft 16 kts 155°
2026-05-06 11:38 29.24043 47.96404 165 ft 20 kts 154°
2026-05-06 11:38 29.23899 47.96481 166 ft 26 kts 155°
2026-05-06 11:38 29.23726 47.96575 166 ft 27 kts 154°
2026-05-06 11:39 29.23568 47.96658 172 ft 24 kts 156°
2026-05-06 11:39 29.23412 47.96741 178 ft 24 kts 155°
2026-05-06 11:39 29.23269 47.96817 178 ft 22 kts 155°
2026-05-06 11:39 29.23128 47.96891 174 ft 23 kts 155°
2026-05-06 11:40 29.22982 47.96969 170 ft 23 kts 155°
2026-05-06 11:40 29.22838 47.97044 170 ft 25 kts 155°
2026-05-06 11:40 29.22654 47.97142 169 ft 32 kts 154°
2026-05-06 11:40 29.22447 47.97253 169 ft 34 kts 154°
2026-05-06 11:41 29.22228 47.97368 169 ft 35 kts 155°
2026-05-06 11:41 29.21999 47.97492 168 ft 37 kts 155°
2026-05-06 11:41 29.21758 47.97619 168 ft 39 kts 155°
2026-05-06 11:41 29.21535 47.97739 170 ft 31 kts 155°
2026-05-06 11:42 29.21347 47.97838 172 ft 21 kts 155°
2026-05-06 11:42 29.21252 47.97820 172 ft 16 kts 241°
2026-05-06 11:42 29.21270 47.97698 175 ft 16 kts 303°
2026-05-06 11:42 29.21326 47.97608 182 ft 16 kts 316°
2026-05-06 11:43 29.21433 47.97543 181 ft 18 kts 335°
2026-05-06 11:43 29.21558 47.97477 179 ft 25 kts 335°
2026-05-06 11:43 29.21977 47.97275 183 ft 110 kts 334°
2026-05-06 11:44 29.24001 47.96175 1229 ft 175 kts 337°
2026-05-06 11:44 29.25154 47.95568 2131 ft 194 kts 337°
2026-05-06 11:44 29.26448 47.94882 2900 ft 217 kts 336°
2026-05-06 11:44 29.27893 47.94113 3683 ft 238 kts 336°
2026-05-06 11:45 29.29465 47.93283 3942 ft 257 kts 336°
2026-05-06 11:45 29.31047 47.92441 4008 ft 262 kts 335°
2026-05-06 11:45 29.32708 47.91560 4031 ft 264 kts 336°
2026-05-06 11:45 29.34457 47.90964 4006 ft 264 kts 356°
2026-05-06 11:46 29.36217 47.91429 4012 ft 266 kts 28°
2026-05-06 11:46 29.37583 47.92852 4028 ft 271 kts 56°
2026-05-06 11:46 29.38461 47.94786 4748 ft 275 kts 63°
2026-05-06 11:46 29.39387 47.96742 5528 ft 284 kts 61°
2026-05-06 11:47 29.40369 47.98765 6193 ft 296 kts 61°
2026-05-06 11:47 29.41379 48.00867 6907 ft 304 kts 63°
2026-05-06 11:47 29.42097 48.03157 7697 ft 307 kts 80°
2026-05-06 11:47 29.42242 48.05597 8543 ft 308 kts 97°
2026-05-06 11:48 29.41799 48.07987 9399 ft 307 kts 113°
2026-05-06 11:48 29.40811 48.10153 10151 ft 310 kts 128°
2026-05-06 11:48 29.39334 48.12057 10425 ft 331 kts 139°
2026-05-06 11:48 29.37643 48.13975 10731 ft 350 kts 139°
2026-05-06 11:49 29.35891 48.15961 11350 ft 358 kts 139°
2026-05-06 11:49 29.34117 48.17981 12103 ft 361 kts 139°
2026-05-06 11:49 29.32334 48.20022 12879 ft 363 kts 139°
2026-05-06 11:49 29.30567 48.22052 13652 ft 366 kts 139°
2026-05-06 11:50 29.28740 48.24148 14347 ft 369 kts 140°
2026-05-06 11:50 29.27533 48.25532 14764 ft 372 kts 140°
2026-05-06 11:50 29.25686 48.27646 15378 ft 378 kts 140°
2026-05-06 11:50 29.23813 48.29788 15984 ft 383 kts 140°
2026-05-06 11:51 29.21914 48.31959 16581 ft 389 kts 141°
2026-05-06 11:51 29.19985 48.34162 17192 ft 394 kts 141°
2026-05-06 11:51 29.18031 48.36393 17794 ft 400 kts 141°
2026-05-06 11:51 29.16049 48.38655 18332 ft 405 kts 141°
2026-05-06 11:52 29.14042 48.40951 18836 ft 410 kts 141°
2026-05-06 11:52 29.12017 48.43268 19381 ft 414 kts 141°
2026-05-06 11:52 29.09976 48.45604 19935 ft 417 kts 141°
2026-05-06 11:52 29.07918 48.47956 20499 ft 420 kts 141°
2026-05-06 11:53 29.05844 48.50326 21054 ft 423 kts 141°
2026-05-06 11:53 29.03756 48.52711 21597 ft 426 kts 141°
2026-05-06 11:53 29.01652 48.55112 22131 ft 429 kts 141°
2026-05-06 11:53 28.99532 48.57526 22654 ft 432 kts 141°
2026-05-06 11:54 28.97397 48.59954 23175 ft 435 kts 141°
2026-05-06 11:54 28.95245 48.62400 23640 ft 438 kts 141°
2026-05-06 11:54 28.93079 48.64862 24059 ft 441 kts 141°
2026-05-06 11:54 28.90928 48.67305 24452 ft 444 kts 142°
2026-05-06 11:55 28.88731 48.69795 24846 ft 447 kts 142°
2026-05-06 11:55 28.86520 48.72298 25227 ft 450 kts 142°
2026-05-06 11:55 28.84290 48.74822 25590 ft 453 kts 142°
2026-05-06 11:55 28.82054 48.77370 25972 ft 457 kts 140°
2026-05-06 11:56 28.80019 48.80213 26342 ft 469 kts 131°
2026-05-06 11:56 28.78335 48.83441 26698 ft 477 kts 125°
2026-05-06 11:56 28.76726 48.86756 26840 ft 479 kts 125°
2026-05-06 11:56 28.75108 48.90074 26868 ft 479 kts 126°
2026-05-06 11:57 28.73485 48.93386 26864 ft 479 kts 126°
2026-05-06 11:57 28.71859 48.96697 26854 ft 479 kts 126°
2026-05-06 11:57 28.70234 49.00003 26866 ft 479 kts 126°
2026-05-06 11:57 28.68605 49.03309 26866 ft 478 kts 126°
2026-05-06 11:58 28.66976 49.06610 26864 ft 478 kts 126°
2026-05-06 11:58 28.65345 49.09913 26863 ft 478 kts 126°
2026-05-06 11:58 28.63711 49.13215 26866 ft 479 kts 126°
2026-05-06 11:58 28.62077 49.16519 26863 ft 479 kts 126°
2026-05-06 11:59 28.60391 49.19777 26857 ft 474 kts 131°
2026-05-06 11:59 28.58365 49.22689 26841 ft 465 kts 140°
2026-05-06 11:59 28.56046 49.25122 26842 ft 455 kts 149°
2026-05-06 11:59 28.53413 49.27137 26841 ft 446 kts 158°
2026-05-06 12:00 28.50703 49.28840 26837 ft 449 kts 155°
2026-05-06 12:00 28.48217 49.31057 26837 ft 458 kts 146°
2026-05-06 12:00 28.45874 49.33447 26835 ft 459 kts 145°
2026-05-06 12:00 28.43501 49.35869 26835 ft 459 kts 145°
2026-05-06 12:01 28.41114 49.38281 26825 ft 459 kts 146°
2026-05-06 12:01 28.38717 49.40676 26831 ft 459 kts 146°
2026-05-06 12:01 28.36314 49.43057 26834 ft 459 kts 146°
2026-05-06 12:01 28.33906 49.45430 26833 ft 459 kts 146°
2026-05-06 12:02 28.31494 49.47803 26833 ft 459 kts 146°
2026-05-06 12:02 28.29086 49.50175 26834 ft 459 kts 146°
2026-05-06 12:02 28.26675 49.52551 26831 ft 459 kts 146°
2026-05-06 12:02 28.24265 49.54925 26820 ft 459 kts 146°
2026-05-06 12:03 28.21854 49.57295 26825 ft 459 kts 146°
2026-05-06 12:03 28.19397 49.59592 26826 ft 457 kts 148°
2026-05-06 12:03 28.16887 49.61792 26828 ft 455 kts 150°
2026-05-06 12:03 28.14347 49.63933 26830 ft 455 kts 151°
2026-05-06 12:04 28.11796 49.66050 26829 ft 455 kts 151°
2026-05-06 12:04 28.09247 49.68175 26827 ft 455 kts 150°
2026-05-06 12:04 28.06704 49.70319 26821 ft 456 kts 150°
2026-05-06 12:04 28.04169 49.72469 26822 ft 455 kts 150°
2026-05-06 12:05 28.01605 49.74564 26826 ft 454 kts 152°
2026-05-06 12:05 27.99011 49.76601 26832 ft 453 kts 153°
2026-05-06 12:05 27.96403 49.78598 26836 ft 453 kts 153°
2026-05-06 12:05 27.93785 49.80584 26834 ft 453 kts 153°
2026-05-06 12:06 27.91167 49.82573 26814 ft 453 kts 153°
2026-05-06 12:06 27.88559 49.84572 26822 ft 454 kts 152°
2026-05-06 12:06 27.85951 49.86588 26821 ft 454 kts 152°
2026-05-06 12:06 27.83385 49.88581 26821 ft 454 kts 152°
2026-05-06 12:07 27.80785 49.90606 26826 ft 454 kts 152°
2026-05-06 12:07 27.78183 49.92633 26825 ft 454 kts 152°
2026-05-06 12:07 27.75581 49.94655 26829 ft 454 kts 152°
2026-05-06 12:07 27.72975 49.96672 26822 ft 454 kts 152°
2026-05-06 12:08 27.70366 49.98685 26819 ft 454 kts 152°
2026-05-06 12:08 27.67758 50.00697 26820 ft 454 kts 152°
2026-05-06 12:08 27.65150 50.02709 26823 ft 454 kts 152°
2026-05-06 12:08 27.62540 50.04725 26825 ft 455 kts 152°
2026-05-06 12:09 27.59931 50.06738 26830 ft 455 kts 152°
2026-05-06 12:09 27.57319 50.08749 26831 ft 455 kts 152°
2026-05-06 12:09 27.54707 50.10761 26814 ft 455 kts 152°
2026-05-06 12:09 27.52097 50.12771 26818 ft 455 kts 152°
2026-05-06 12:10 27.49483 50.14783 26821 ft 455 kts 152°
2026-05-06 12:10 27.46873 50.16788 26821 ft 454 kts 152°
2026-05-06 12:10 27.44259 50.18795 26823 ft 455 kts 152°
2026-05-06 12:10 27.41665 50.20834 26825 ft 455 kts 150°
2026-05-06 12:11 27.39088 50.22915 26826 ft 456 kts 150°
2026-05-06 12:11 27.36525 50.25021 26826 ft 456 kts 149°
2026-05-06 12:11 27.33964 50.27133 26824 ft 456 kts 149°
2026-05-06 12:11 27.31400 50.29237 26825 ft 456 kts 150°
2026-05-06 12:12 27.28830 50.31331 26824 ft 456 kts 150°
2026-05-06 12:12 27.26258 50.33417 26821 ft 456 kts 150°
2026-05-06 12:12 27.23683 50.35499 26821 ft 456 kts 150°
2026-05-06 12:12 27.21105 50.37577 26822 ft 456 kts 150°
2026-05-06 12:13 27.18540 50.39641 26688 ft 454 kts 150°
2026-05-06 12:13 27.15979 50.41705 25942 ft 453 kts 149°
2026-05-06 12:13 27.13432 50.43757 25303 ft 448 kts 149°
2026-05-06 12:13 27.10906 50.45791 24689 ft 444 kts 149°
2026-05-06 12:14 27.08405 50.47803 24090 ft 440 kts 148°
2026-05-06 12:14 27.05959 50.49770 23519 ft 437 kts 148°
2026-05-06 12:14 27.03502 50.51745 22843 ft 433 kts 148°
2026-05-06 12:14 27.01062 50.53693 22192 ft 428 kts 150°
2026-05-06 12:15 26.98480 50.55269 21522 ft 416 kts 160°
2026-05-06 12:15 26.95767 50.56272 20227 ft 409 kts 171°
2026-05-06 12:15 26.92937 50.56641 18791 ft 410 kts 181°
2026-05-06 12:15 26.90112 50.56728 18147 ft 399 kts 181°
2026-05-06 12:16 26.87396 50.56836 17794 ft 387 kts 180°
2026-05-06 12:16 26.84715 50.56954 17252 ft 384 kts 180°
2026-05-06 12:16 26.82053 50.57076 16720 ft 382 kts 180°
2026-05-06 12:16 26.79408 50.57199 16173 ft 380 kts 180°
2026-05-06 12:17 26.76771 50.57321 15631 ft 378 kts 180°
2026-05-06 12:17 26.74144 50.57440 15067 ft 378 kts 180°
2026-05-06 12:17 26.71520 50.57559 14509 ft 377 kts 180°
2026-05-06 12:17 26.68901 50.57679 13944 ft 377 kts 180°
2026-05-06 12:18 26.66284 50.57799 13340 ft 376 kts 179°
2026-05-06 12:18 26.63673 50.57919 12750 ft 374 kts 179°
2026-05-06 12:18 26.61082 50.58038 12165 ft 372 kts 179°
2026-05-06 12:18 26.58602 50.58487 11940 ft 350 kts 164°
2026-05-06 12:19 26.56464 50.59564 11789 ft 325 kts 155°
2026-05-06 12:19 26.54497 50.60702 11341 ft 313 kts 155°
2026-05-06 12:19 26.52578 50.61815 10723 ft 309 kts 155°
2026-05-06 12:19 26.50644 50.62685 10092 ft 290 kts 170°
2026-05-06 12:20 26.48719 50.63412 9496 ft 294 kts 158°
2026-05-06 12:20 26.46902 50.64516 9310 ft 301 kts 152°
2026-05-06 12:20 26.45147 50.65719 8936 ft 301 kts 150°
2026-05-06 12:20 26.43338 50.66962 8525 ft 299 kts 150°
2026-05-06 12:21 26.41553 50.68137 8120 ft 297 kts 152°
2026-05-06 12:21 26.39755 50.69263 7713 ft 295 kts 153°
2026-05-06 12:21 26.37957 50.70362 7311 ft 294 kts 150°
2026-05-06 12:21 26.36365 50.71781 6914 ft 295 kts 134°
2026-05-06 12:22 26.35156 50.73619 6524 ft 293 kts 123°
2026-05-06 12:22 26.34058 50.75537 6087 ft 293 kts 123°
2026-05-06 12:22 26.32961 50.77441 5711 ft 290 kts 123°
2026-05-06 12:22 26.31873 50.79323 5335 ft 287 kts 123°
2026-05-06 12:23 26.30796 50.81187 4934 ft 285 kts 123°
2026-05-06 12:23 26.29736 50.83021 4702 ft 276 kts 123°
2026-05-06 12:23 26.28722 50.84773 4578 ft 263 kts 123°
2026-05-06 12:23 26.27758 50.86438 4447 ft 247 kts 123°
2026-05-06 12:24 26.26860 50.87991 4350 ft 231 kts 123°
2026-05-06 12:24 26.25925 50.89367 4214 ft 218 kts 141°
2026-05-06 12:24 26.24527 50.89917 3933 ft 218 kts 183°
2026-05-06 12:24 26.23156 50.89273 3652 ft 219 kts 226°
2026-05-06 12:25 26.22386 50.87815 3390 ft 220 kts 245°
2026-05-06 12:25 26.21770 50.86247 3124 ft 222 kts 246°
2026-05-06 12:25 26.21158 50.84661 2849 ft 224 kts 246°
2026-05-06 12:25 26.20551 50.83086 2743 ft 216 kts 246°
2026-05-06 12:26 26.19970 50.81579 2689 ft 206 kts 246°
2026-05-06 12:26 26.19427 50.80173 2615 ft 190 kts 246°
2026-05-06 12:26 26.19058 50.78778 2540 ft 192 kts 264°
2026-05-06 12:26 26.19178 50.77289 2441 ft 196 kts 288°
2026-05-06 12:27 26.19803 50.75956 2262 ft 195 kts 304°
2026-05-06 12:27 26.20513 50.74731 2021 ft 183 kts 304°
2026-05-06 12:27 26.21159 50.73612 1803 ft 162 kts 304°
2026-05-06 12:27 26.21740 50.72608 1609 ft 148 kts 305°
2026-05-06 12:28 26.22285 50.71667 1419 ft 142 kts 305°
2026-05-06 12:28 26.22812 50.70757 1244 ft 138 kts 306°
2026-05-06 12:28 26.23325 50.69870 1071 ft 135 kts 306°
2026-05-06 12:28 26.23827 50.69001 907 ft 131 kts 308°
2026-05-06 12:29 26.24319 50.68150 751 ft 132 kts 307°
2026-05-06 12:29 26.24812 50.67297 581 ft 130 kts 307°
2026-05-06 12:29 26.25299 50.66455 408 ft 129 kts 306°
2026-05-06 12:29 26.25781 50.65621 248 ft 127 kts 306°
2026-05-06 12:30 26.26257 50.64791 62 ft 127 kts 306°
2026-05-06 12:30 26.26715 50.64019 18 ft 104 kts 302°
2026-05-06 12:30 26.27000 50.63498 15 ft 54 kts 298°
2026-05-06 12:30 26.27159 50.63200 15 ft 41 kts 303°
2026-05-06 12:31 26.27246 50.62964 17 ft 24 kts 270°
2026-05-06 12:31 26.27226 50.62834 19 ft 13 kts 205°
2026-05-06 12:31 26.27168 50.62880 23 ft 10 kts 123°
2026-05-06 12:31 26.27122 50.62912 22 ft 6 kts 186°
2026-05-06 12:32 26.27087 50.62892 22 ft 6 kts 208°
2026-05-06 12:32 26.27046 50.62885 22 ft 6 kts 162°
2026-05-06 12:32 26.27021 50.62904 22 ft 4 kts 141°
2026-05-06 12:32 26.26989 50.62917 22 ft 5 kts 185°
2026-05-06 12:33 26.26956 50.62898 21 ft 5 kts 210°
2026-05-06 12:33 26.26943 50.62888 24 ft 1 kts 213°
2026-05-06 12:33 26.26936 50.62883 23 ft 1 kts 212°
2026-05-06 12:33 26.26935 50.62883 23 ft 0 kts 212°
2026-05-06 12:34 26.26935 50.62852 21 ft 0 kts 213°